Regional Weather Roundup
Issued by NWS Charleston, SC

Current Version | Previous Version | Text Only | Print | Product List | Glossary Off
Versions: 1 2 3 4 5 6 7 8 9 10 11 12 13 14 15 16 17 18 19 20 21 22 23 24 25 26 27 28 29 30 31 32 33 34 35 36 37 38 39 40 41 42 43 44 45 46 47 48 49 50

000
ASUS42 KCHS 280727
RWRCHS

REGIONAL WEATHER ROUNDUP
NATIONAL WEATHER SERVICE CHARLESTON SC
300 AM EDT FRI AUG 28 2015

NOTE: "FAIR" INDICATES FEW OR NO CLOUDS BELOW 12,000 FEET WITH NO
SIGNIFICANT WEATHER AND/OR OBSTRUCTIONS TO VISIBILITY.

NOT ALL STATIONS ARE QUALITY CONTROLLED BY THE NATIONAL
WEATHER SERVICE. USE DATA WITH CAUTION...ESPECIALLY
DEWPOINT OBSERVATIONS.

SCZ027-030-031-034>040-042>050-280800-
...SOUTHEAST SOUTH CAROLINA...

CITY           SKY/WX    TMP DP  RH WIND       PRES   REMARKS
N CHARLESTON   MOCLDY    73  71  93 NE5       30.04F
WATERFRONT PRK   N/A     75  74  97 N7        30.02S
MOUNT PLEASANT CLOUDY    73  73 100 N5        30.03F FOG
JOHNS ISLAND   FAIR      73  73 100 N7        30.03F
PINOPOLIS        N/A     75  72  88 NE10      29.99R
MONCKS CORNER  FAIR      72  68  88 CALM      30.05S
SUMMERVILLE    FAIR      70  70 100 CALM      30.06S
BEAUFORT MCAS  CLEAR     74  71  91 NE6       30.03F
BEAUFORT ARPT  FAIR      73  73 100 N7        30.03S
HILTON HEAD IS CLEAR     77  75  94 N5        30.03F
WALTERBORO     MOSUNNY   73  70  88 N6        30.06S
ALLENDALE      PTSUNNY   73  72  94 N3        30.05F

...SOUTHERN MIDLANDS AND PEE DEE...

CITY           SKY/WX    TMP DP  RH WIND       PRES   REMARKS
GEORGETOWN     NOT AVBL
KINGSTREE      NOT AVBL
ORANGEBURG     MOCLDY    72  68  87 NE7       30.07F
BARNWELL       FAIR      73  72  94 E5        30.06F
AIKEN          FAIR      68  64  88 E6        30.10F
MANNING        FAIR      68  66  94 CALM      30.07S
COLUMBIA       PTCLDY    73  66  78 E6        30.08S
SUMTER         PTCLDY    68  65  90 NE6       30.06S
FLORENCE       PTCLDY    69  64  84 NE6       30.08F
MYRTLE BEACH     N/A     72  64  78 N10       30.07
N MYRTLE BEACH CLOUDY    70  67  90 NE9       30.05F

$$

GAZ063-065-086>088-099>101-113>116-118-119-134>141-150-280800-
...SOUTHEAST GEORGIA...

CITY           SKY/WX    TMP DP  RH WIND       PRES   REMARKS
SAVANNAH ARPT  CLEAR     74  72  93 NE8       30.03F
HUNTER AAF     CLEAR     76  76 100 NE2       30.00F
FORT STEWART   MOCLDY    74  72  93 NE2       30.00S
STATESBORO     CLEAR     73  73 100 CALM      30.04S
SYLVANIA       SUNNY     74  73  99 E5        30.05F
CLAXTON        NOT AVBL

...CSRA...CENTRAL AND FAR SOUTHEAST GEORGIA...

CITY           SKY/WX    TMP DP  RH WIND       PRES   REMARKS
THOMSON        CLEAR     73  73  97 E3        30.11R
AUGUSTA-BUSH   CLEAR     72  70  93 E3        30.05F
AUGUSTA-DANIEL CLEAR     74  69  85 E9        30.07F
SWAINSBORO     FAIR     N/A N/A N/A E7        30.04F
VIDALIA        CLEAR     73  72  94 E7        30.03F
EASTMAN        FAIR      73  73 100 E5        30.04F
HAZLEHURST     FAIR      74  74 100 CALM      30.01S
ALMA           CLEAR     73  71  93 CALM      30.01F
WAYCROSS       CLOUDY    76  76 100 CALM      30.00S
JESUP          PTSUNNY   77  75  94 CALM      30.01S
BAXLEY         FAIR      75  73  94 NE6       30.01F
BRUNSWICK      PTCLDY    73  72  94 CALM      30.00S
SAINT SIMONS   PTCLDY    80  73  79 SE8       30.00F

$$

SCZ027-028-034-036>038-045-046-048>050-GAZ119-141-280800-
...LAKE AND SUPPLEMENTAL COASTAL OBSERVATIONS...

STATION/POSITION TIME  TEMP    WIND        PRES    WAVE   SWELL
                       AIR SEA DIR/SP/G            HT/PER HT/PER/DIR
                 (UTC) (F)     (DEG/KT/KT) (MB)    (FT/S) (FT/S/D)
UPR LAKE MARION  NOT AVBL
WINYAH BAY       NOT AVBL
LAKE MURRAY      0600   74      80/  7/ 10 1018.3F
ACE BASIN NERRS  NOT AVBL
FORT PULASKI     0700   78 85   10/  6/  9 1016.9F
SAPELO ISLAND    0600   80      90/  4     1016.0S

$$

ANZ835-935-AMZ111-154-330-350-352-354-370-450-454-472-280800-
...C-MAN AND BUOY OBSERVATIONS...

STATION/POSITION TIME  TEMP    WIND        PRES    WAVE   SWELL
                       AIR SEA DIR/SP/G            HT/PER HT/PER/DIR
                 (UTC) (F)     (DEG/KT/KT) (MB)    (FT/S) (FT/S/D)
BUOY 41004       0650   81 84     CALM     1016.1F   2/ 9   2/ 9
BUOY 41008       0650   82 85  100/ 10/ 12 1016.2F   3/ 9   2/110/ 9
FOLLY BEACH CMAN 0700   75      10/  9/ 12 1016.9F
CAPERS NEARSHORE 0608   79      40/ 14/ 17 1017.3F
FRIPP NEARSHORE  0600   82      60/ 10/ 12 1016.7F


STATION/POSITION TIME  TEMP    WIND        PRES    WAVE   SWELL
                       AIR SEA DIR/SP/G            HT/PER HT/PER/DIR
                 (UTC) (F)     (DEG/KT/KT) (MB)    (FT/S) (FT/S/D)
5E ST. MARYS GA  0621      86                N/A     2/ 9
FRYING PAN BUOY  0650   79 81   10/  8/ 10 1017.1F
BUOY 41025       0650   74 83  180/  2/  6 1018.3S   4/ 7   3/ 80/ 7
CAPE LOOKOUT NC  0700   76      10/ 13/ 15 1017.3F
BUOY 41002       0650   79 83   90/  4/  6 1015.8F   3/ 8   3/130/ 8
BUOY 41010       0620   82 85  160/  8/ 10 1015.9S
ST AUGUSTINE FL  0700   76 85  240/  4/  5 1016.0F


$$



USA.gov is the U.S. government's official web portal to all federal, state and local government web resources and services.